Location: Lugano
(46.0000°N, 8.9670°E)
Time: 16:47:09
(UTC+02:00)

Envisat - Pass Details

Date: 19 March 2026
Orbit: 761 x 762 km, 98.4° (Epoch: 19 April)

Event Time Altitude Azimuth Distance (km) Brightness Sun altitude
Rises 02:51:16 0° 16° (NNE) 3,235 7.0 -35.3°
Reaches altitude 10° 02:53:37 10° 20° (NNE) 2,304 6.1 -35.0°
Enters shadow 02:56:33 34° 35° (NE) 1,242 4.5 -34.7°
